Location: Unspecified
(47.5840°N, 122.3000°W)
Time: 18:41:12
(UTC+00:00)

IRIDIUM 114 - Pass Details

Date: 15 March 2026
Orbit: 776 x 779 km, 86.4° (Epoch: 14 April)

Event Time Altitude Azimuth Distance (km) Brightness Sun altitude
Exits shadow 04:17:26 19° 48° (NE) 1,804 6.0 -21.3°
Drops below altitude 10° 04:19:30 10° 28° (NNE) 2,342 6.7 -21.6°
Sets 04:22:15 0° 15° (NNE) 3,274 7.7 -22.0°
